Wetbulb
72.56 72.70 72.84 72.38 71.94 71.50 71.10 70.34 69.63 69.79 69.97 70.72 71.00 70.36 68.82 68.12 66.86 67.19 67.39 68.11 68.50 68.42 68.10 67.93 67.75 67.56 67.43 67.22 67.06 66.93 66.96 66.74 66.52
72.74 72.26 72.47 72.03 71.59 71.60 70.86 69.52 69.15 69.30 70.10 70.59 70.86 69.50 67.61 67.26 66.43 67.12 67.97 68.74 68.50 68.37 67.98 67.72 67.50 67.31 67.06 66.95 66.95 66.86 66.89 66.68 66.40
72.82 72.79 72.06 71.58 71.20 70.42 70.73 69.27 69.10 69.15 70.74 70.98 70.50 67.99 65.87 64.87 66.10 67.30 68.26 68.65 68.44 68.26 67.81 67.52 67.18 67.07 66.89 66.62 66.57 66.48 66.43 66.41 66.28
72.33 71.70 71.17 70.96 70.06 70.35 70.66 69.28 68.90 68.80 70.97 70.66 69.09 66.49 65.24 65.37 66.25 66.70 68.14 68.61 68.44 68.07 67.62 67.23 66.94 66.65 66.42 66.17 65.86 65.62 65.59 65.48 65.35
71.21 70.36 70.46 70.75 70.45 70.35 70.62 69.51 68.77 69.03 69.96 69.46 67.72 65.92 64.54 65.64 66.20 66.96 68.07 68.22 68.48 68.06 67.45 66.92 66.62 66.35 65.98 65.59 65.31 65.07 64.78 64.52 64.34
70.99 68.48 68.90 70.26 70.62 70.60 69.99 69.58 69.47 69.15 68.23 68.60 66.86 65.13 66.33 65.98 65.88 66.56 67.24 68.37 68.50 68.15 67.57 66.97 66.56 66.15 65.68 65.32 65.05 64.65 64.22 63.87 63.66
70.62 68.06 67.88 69.84 69.88 69.68 69.92 69.49 69.07 67.77 67.47 67.31 66.09 66.71 67.19 66.72 66.55 66.48 66.91 68.42 68.69 68.15 67.56 67.06 66.76 66.41 65.94 65.41 64.96 64.69 64.30 63.83 63.53
71.40 71.11 69.98 70.07 67.19 68.35 68.40 68.26 67.67 67.30 66.79 66.83 66.84 67.01 67.21 66.73 67.01 66.85 66.00 67.57 68.92 68.57 67.93 67.45 67.09 66.83 66.61 66.43 66.12 65.59 65.13 64.58 64.49
70.43 69.89 69.79 69.60 69.96 67.85 66.45 65.58 65.58 65.78 66.51 66.30 66.23 66.45 66.55 66.53 66.64 66.96 64.54 66.45 68.45 68.93 68.70 68.15 67.80 67.78 67.84 67.78 67.56 67.20 66.32 65.56 65.43
70.63 70.73 70.71 70.05 69.70 68.95 67.02 65.66 65.42 65.64 65.45 65.42 65.30 65.26 65.75 65.90 65.66 65.46 62.97 64.73 66.95 68.66 69.24 69.35 69.20 68.88 68.76 68.74 68.69 68.59 67.95 66.92 66.27
70.11 70.11 70.42 69.64 70.29 69.73 68.47 66.38 65.66 65.14 65.34 65.08 64.96 64.55 64.88 65.38 65.10 65.16 65.62 63.67 65.30 66.99 68.66 69.67 69.42 69.40 69.41 69.14 68.97 68.49 68.53 67.72 66.91
68.20 69.35 69.68 69.66 70.02 69.12 68.17 67.24 67.10 66.30 65.98 65.79 65.17 64.82 64.60 64.40 64.61 65.29 65.70 65.54 62.76 65.16 67.20 68.01 68.85 69.13 69.21 68.98 68.47 68.00 68.72 68.04 66.68
68.08 67.93 68.12 68.98 68.59 68.71 68.41 67.41 66.34 65.65 65.56 64.54 64.54 64.79 64.75 64.60 64.31 64.68 65.42 65.74 65.47 64.15 65.36 67.40 68.05 69.03 69.25 69.05 68.75 67.99 68.06 67.79 66.02
66.13 66.88 67.34 67.58 67.29 66.96 66.76 66.23 66.03 64.28 64.98 64.40 64.00 64.98 64.63 64.57 64.24 64.24 64.59 65.49 65.37 65.69 63.95 63.75 64.89 66.50 68.27 68.56 68.54 67.96 68.06 67.56 65.61
66.11 66.15 66.69 66.51 66.52 66.62 66.00 64.63 64.57 63.98 63.73 63.19 63.91 64.83 65.15 64.91 64.10 63.86 63.96 64.80 65.55 65.67 65.27 65.74 63.32 62.81 65.58 66.98 67.33 67.36 67.05 67.71 65.58
65.86 65.74 65.91 66.16 64.90 65.42 66.07 65.58 63.29 62.96 63.73 62.62 62.29 64.15 64.98 64.27 63.63 63.89 64.06 63.99 65.02 65.41 65.12 65.39 65.98 65.23 63.68 65.18 66.04 66.53 66.54 67.79 65.61
65.12 65.20 65.43 65.64 66.05 65.19 65.13 64.95 63.28 63.12 62.78 59.95 60.22 58.19 60.55 62.08 62.67 63.74 63.34 63.83 65.13 64.97 64.77 65.41 65.46 65.86 65.66 64.79 63.81 65.14 67.04 67.47 65.95
64.90 64.65 65.27 65.77 65.80 64.89 63.60 65.08 62.83 61.12 62.30 61.78 59.37 55.91 54.38 57.78 62.21 62.52 63.03 63.22 64.40 64.78 64.98 64.94 64.90 65.27 65.71 64.20 63.48 63.37 65.98 66.70 65.98
65.22 65.16 64.71 65.99 66.01 64.67 64.79 63.27 63.07 62.84 59.94 61.54 60.58 60.81 59.20 56.37 56.49 60.05 60.35 62.06 63.19 63.92 63.65 63.82 64.19 64.53 64.32 62.48 61.35 61.28 62.99 65.67 65.47
64.37 64.72 64.16 64.18 64.66 63.68 63.22 62.66 62.38 62.53 60.96 59.71 58.72 59.54 59.82 59.19 57.60 56.39 58.19 59.19 60.59 62.57 63.06 63.53 63.04 62.97 63.25 63.80 61.93 59.78 62.18 64.19 64.22
MSLP
1016.60 1016.77 1016.84 1016.99 1017.09 1017.16 1017.34 1017.54 1017.64 1017.72 1017.71 1017.68 1017.68 1017.81 1017.88 1017.90 1017.45 1017.53 1017.89 1017.52 1018.22 1018.26 1018.25 1018.25 1018.26 1018.23 1018.17 1018.18 1018.22 1018.18 1018.14 1018.08 1018.06
1016.62 1016.73 1017.04 1017.14 1017.28 1017.31 1017.56 1017.77 1017.89 1017.88 1017.87 1017.86 1017.91 1018.03 1018.07 1017.39 1017.51 1017.61 1017.73 1017.98 1018.36 1018.39 1018.43 1018.43 1018.40 1018.39 1018.37 1018.36 1018.36 1018.38 1018.32 1018.31 1018.24
1016.53 1016.77 1016.95 1017.17 1017.27 1017.57 1017.74 1017.97 1018.03 1018.09 1017.90 1017.95 1018.19 1018.28 1018.25 1017.78 1017.52 1017.57 1017.67 1018.39 1018.48 1018.53 1018.60 1018.55 1018.54 1018.55 1018.53 1018.52 1018.53 1018.52 1018.53 1018.58 1018.53
1016.49 1016.60 1016.85 1016.98 1017.36 1017.77 1017.91 1018.11 1018.20 1018.24 1018.16 1018.16 1018.34 1018.52 1018.37 1017.55 1017.54 1017.63 1017.64 1018.37 1018.44 1018.61 1018.69 1018.69 1018.64 1018.69 1018.73 1018.74 1018.75 1018.71 1018.70 1018.71 1018.68
1016.59 1016.66 1016.74 1016.95 1017.28 1017.61 1017.90 1018.16 1018.37 1018.38 1018.40 1018.48 1018.50 1018.61 1018.56 1017.55 1017.79 1017.71 1017.70 1018.39 1018.36 1018.50 1018.70 1018.78 1018.76 1018.73 1018.83 1018.90 1018.88 1018.84 1018.86 1018.82 1018.82
1016.24 1016.38 1016.62 1016.86 1017.11 1017.40 1017.72 1018.03 1018.31 1018.52 1018.63 1018.64 1018.66 1018.69 1017.78 1017.60 1017.61 1017.62 1018.33 1018.45 1018.36 1018.42 1018.56 1018.71 1018.78 1018.82 1018.87 1018.91 1018.90 1018.93 1018.97 1018.99 1018.92
1015.66 1015.95 1016.65 1016.83 1017.04 1017.33 1017.51 1017.85 1018.13 1018.45 1017.88 1018.18 1018.80 1018.16 1017.47 1017.51 1017.59 1017.59 1018.25 1018.45 1018.26 1018.41 1018.52 1018.63 1018.68 1018.73 1018.81 1018.85 1018.90 1018.88 1018.83 1018.85 1018.81
1015.46 1015.65 1016.22 1016.55 1016.98 1017.13 1017.32 1017.44 1017.53 1017.42 1017.34 1017.46 1017.64 1017.65 1017.44 1017.30 1017.33 1017.55 1018.27 1018.27 1018.12 1018.20 1018.39 1018.48 1018.53 1018.57 1018.63 1018.70 1018.71 1018.69 1018.70 1018.73 1018.76
1014.87 1015.16 1015.46 1015.72 1016.04 1016.37 1016.59 1016.59 1016.67 1016.87 1017.13 1017.27 1017.42 1017.42 1017.49 1017.26 1017.21 1017.15 1018.07 1018.31 1018.15 1017.99 1018.12 1018.29 1018.36 1018.33 1018.36 1018.37 1018.40 1018.53 1018.57 1018.56 1018.59
1014.72 1015.07 1015.12 1015.20 1015.43 1015.64 1016.01 1016.43 1016.29 1016.50 1016.70 1016.91 1017.03 1017.10 1017.09 1017.12 1017.08 1017.16 1017.61 1018.00 1018.08 1018.03 1017.87 1017.86 1017.95 1017.98 1018.00 1018.01 1017.95 1017.98 1018.14 1018.34 1018.45
1014.81 1014.81 1014.96 1015.06 1015.12 1015.13 1015.71 1016.10 1016.03 1016.19 1016.23 1016.38 1016.46 1016.58 1016.68 1016.70 1016.82 1016.87 1016.85 1017.46 1017.72 1017.79 1017.75 1017.62 1017.58 1017.53 1017.54 1017.57 1017.59 1017.62 1017.70 1017.84 1018.11
1014.74 1014.85 1014.75 1014.66 1014.81 1014.90 1015.42 1015.73 1015.74 1015.98 1015.95 1015.94 1015.90 1016.06 1016.12 1016.34 1016.37 1016.42 1016.47 1016.57 1017.19 1017.36 1017.43 1017.35 1017.27 1017.27 1017.24 1017.22 1017.27 1017.34 1017.37 1017.47 1017.80
1013.90 1014.42 1014.49 1014.29 1014.64 1014.79 1015.08 1015.38 1015.54 1015.61 1015.61 1015.72 1015.60 1015.76 1015.66 1015.78 1015.89 1015.96 1016.01 1016.04 1016.11 1016.58 1016.80 1016.93 1016.97 1016.93 1016.90 1016.91 1016.95 1017.00 1017.11 1017.39 1017.53
1013.81 1013.60 1013.63 1014.01 1014.37 1014.75 1014.80 1014.82 1015.05 1015.14 1015.14 1015.36 1015.29 1015.37 1015.39 1015.44 1015.45 1015.41 1015.50 1015.60 1015.75 1015.67 1015.87 1016.33 1016.48 1016.58 1016.70 1016.70 1016.76 1016.79 1016.63 1017.03 1017.26
1013.32 1013.22 1013.25 1013.42 1013.78 1014.06 1014.44 1014.55 1014.44 1014.71 1014.91 1014.83 1014.89 1014.93 1014.97 1015.08 1014.98 1014.84 1014.90 1014.98 1015.21 1015.41 1015.44 1015.45 1015.89 1016.05 1016.32 1016.47 1016.52 1016.52 1016.40 1016.55 1016.95
1012.85 1012.94 1012.93 1012.99 1013.27 1013.33 1013.45 1013.87 1014.20 1014.44 1014.64 1015.04 1014.72 1014.31 1014.15 1014.34 1014.42 1014.41 1014.44 1014.37 1014.43 1014.83 1014.93 1014.88 1014.86 1014.91 1015.50 1015.81 1016.03 1016.06 1016.01 1016.06 1016.70
1012.60 1012.51 1012.44 1012.60 1012.67 1012.80 1012.93 1013.13 1013.40 1013.61 1014.08 1014.45 1014.27 1014.04 1013.67 1013.42 1013.43 1013.93 1014.01 1013.84 1013.77 1013.79 1014.16 1014.12 1014.26 1014.30 1014.62 1014.79 1015.30 1015.50 1015.47 1015.63 1016.22
1012.04 1011.96 1012.01 1011.96 1012.09 1012.10 1012.33 1012.46 1012.79 1012.93 1013.20 1013.57 1014.06 1013.94 1013.20 1012.95 1012.53 1013.12 1013.05 1013.21 1013.36 1013.21 1013.27 1013.36 1013.41 1013.68 1013.91 1014.23 1014.55 1014.80 1014.70 1015.13 1015.54
1011.24 1011.24 1011.31 1011.15 1011.16 1011.18 1011.36 1011.84 1011.99 1012.34 1012.26 1013.05 1013.22 1013.41 1013.40 1012.96 1012.97 1012.84 1012.63 1012.86 1012.78 1012.53 1012.94 1013.02 1013.03 1013.15 1013.35 1013.49 1013.78 1014.19 1014.46 1014.66 1014.98
1010.34 1010.19 1010.25 1010.30 1010.35 1010.41 1010.58 1010.79 1011.09 1010.99 1011.09 1011.79 1012.42 1013.09 1013.11 1013.12 1013.24 1012.71 1012.71 1012.85 1013.02 1012.71 1012.69 1012.63 1012.70 1013.04 1013.32 1013.12 1013.58 1013.96 1014.09 1014.40 1014.59
Wind_Speed
10 7 10 11 10 8 10 8 7 7 8 10 11 11 10 8 6 6 5 6 9 8 8 8 8 8 8 8 9 9 10 10 10
11 8 11 12 10 10 11 8 6 5 8 10 10 10 7 5 6 6 5 8 7 7 7 7 7 8 8 7 8 8 9 9 10
11 10 10 10 10 9 10 8 7 5 8 11 9 8 6 6 6 6 5 8 7 7 6 6 6 7 7 7 7 7 7 8 8
12 11 10 9 10 9 10 9 7 6 8 9 8 6 6 5 4 5 5 6 7 6 6 5 5 5 6 6 6 5 6 6 7
9 9 11 12 11 11 9 9 8 6 6 7 7 6 6 6 5 4 4 7 8 7 6 5 5 5 5 5 4 4 4 5 5
13 12 12 13 13 12 10 9 8 5 4 5 7 7 5 5 4 4 8 7 8 8 7 6 5 5 5 4 4 3 3 3 3
11 11 10 12 12 12 12 11 8 7 7 6 6 7 6 5 5 4 9 9 10 9 8 8 7 7 6 5 5 4 4 3 2
9 7 9 10 10 8 10 11 10 12 8 7 7 8 7 5 5 5 8 11 11 10 10 10 9 9 8 8 8 8 7 6 5
8 7 10 10 9 11 10 7 11 12 11 10 10 9 7 5 4 4 9 11 12 12 12 11 11 12 11 11 10 10 9 9 7
9 9 8 8 9 10 9 7 10 11 12 11 11 11 10 10 5 5 11 10 12 13 13 14 14 15 14 13 13 13 12 11 8
9 10 9 8 9 10 11 10 10 9 10 12 12 11 10 10 10 7 6 12 12 14 14 15 14 13 14 14 13 10 11 14 10
9 8 9 9 9 12 9 10 10 10 9 13 11 10 12 10 12 9 8 7 13 13 16 16 15 14 14 13 10 9 8 14 13
10 8 7 11 7 8 10 11 9 9 10 9 10 10 10 12 12 10 9 8 8 12 15 15 15 14 15 14 12 10 9 13 14
11 11 10 10 8 7 8 8 10 9 10 10 9 10 9 11 10 13 13 12 9 8 10 15 15 14 13 14 13 12 11 15 15
10 10 12 11 8 11 8 8 8 8 8 6 9 11 10 10 11 12 12 12 12 11 11 8 9 14 13 14 15 15 14 17 16
11 10 12 11 11 13 14 12 12 9 5 6 7 10 12 12 11 11 11 13 12 12 10 9 8 8 13 13 14 16 16 17 16
12 13 12 14 11 16 13 13 9 9 10 8 5 6 9 10 10 10 10 13 12 11 12 12 12 10 6 11 15 15 17 18 17
14 15 14 14 13 11 12 15 15 9 8 13 5 4 7 3 4 13 10 12 11 10 12 14 12 13 10 7 10 13 15 18 18
16 16 17 16 13 15 13 12 14 14 10 9 9 13 1 4 4 5 4 8 13 12 8 10 12 12 8 10 9 13 13 17 18
17 16 17 16 14 15 15 15 14 13 11 10 6 9 8 5 4 6 4 3 9 8 8 9 8 10 10 7 8 12 15 19 19
Wind_Direction
176 165 158 146 149 147 136 148 146 151 158 153 143 138 139 199 118 115 117 103 119 116 106 98 92 87 85 82 76 72 70 68 63
187 178 162 155 161 144 151 160 169 176 184 170 155 148 161 178 140 134 137 113 134 125 116 108 102 98 92 84 80 74 72 70 65
182 188 178 160 150 160 167 175 182 194 179 169 161 156 196 202 156 146 150 120 141 131 126 123 116 111 106 99 88 81 73 67 64
190 175 166 164 168 176 188 186 194 198 188 170 167 168 208 214 157 167 157 162 155 150 148 141 134 125 116 110 101 96 88 77 67
197 174 165 165 171 183 200 191 209 206 206 184 170 167 207 213 177 190 126 177 169 167 169 166 158 150 137 129 128 122 104 93 77
195 202 171 176 177 181 191 198 209 208 218 208 185 190 214 198 200 199 132 205 191 187 184 186 186 184 172 165 163 157 136 113 92
211 199 178 185 184 189 189 196 197 201 220 198 207 228 220 216 211 209 169 215 210 203 200 201 205 208 205 200 195 194 193 191 190
209 213 198 204 193 201 199 194 209 212 223 229 219 236 234 226 221 193 192 217 223 214 214 215 219 221 224 220 217 217 216 219 231
209 214 204 207 199 210 208 211 212 215 218 224 231 230 235 235 236 211 192 229 234 231 223 226 229 231 231 232 229 229 226 230 235
228 224 217 209 212 212 206 221 215 215 218 222 229 237 237 241 240 248 177 222 237 244 243 233 233 236 235 239 238 232 227 230 233
251 240 230 224 223 215 212 208 219 217 222 225 226 235 242 245 241 245 224 206 228 238 245 253 252 239 237 237 240 237 232 219 215
246 252 247 235 232 224 212 221 212 222 222 230 229 231 237 241 244 239 243 217 212 229 239 245 250 251 244 244 236 237 249 207 202
246 224 235 246 237 234 222 214 218 220 227 226 230 239 239 242 245 245 239 235 240 207 229 237 247 252 250 252 253 243 220 205 201
248 251 235 231 228 233 232 218 208 218 221 228 239 237 242 247 245 248 242 239 236 237 201 220 233 240 249 254 253 252 230 207 202
246 249 248 243 222 224 216 224 214 217 221 212 231 243 242 246 245 247 247 241 238 233 239 229 231 227 238 245 247 250 244 206 204
245 246 248 238 236 231 232 219 209 206 212 224 232 239 246 248 247 244 244 241 231 237 228 228 240 216 214 226 237 242 242 205 206
248 250 247 246 238 240 238 223 221 222 198 216 242 239 236 227 231 235 235 240 236 230 230 234 229 231 214 218 217 232 234 198 207
255 252 247 245 239 232 232 233 220 218 192 198 192 211 242 251 177 229 223 226 236 230 225 227 221 218 218 211 217 219 192 199 205
254 248 251 246 241 236 231 223 223 219 211 199 220 236 276 205 218 208 241 239 246 229 221 225 220 216 213 206 210 183 192 197 207
261 256 249 245 245 243 232 225 219 219 200 197 176 214 226 240 254 263 208 236 248 243 232 225 211 211 218 207 202 186 188 198 211